Location: Colle Pacifico
(43.5333°N, 13.3167°E)
Time: 18:26:40
(UTC+00:00)

Cosmos 2322 - Pass Details

Date: 07 June 2020
Orbit: 840 x 855 km, 71.0° (Epoch: 06 July)

Event Time Altitude Azimuth Distance (km) Brightness Sun altitude
Exits shadow 02:43:39 - 215° (SW) 2,696 5.7 -7.0°
Reaches altitude 10° 02:44:15 10° 216° (SW) 2,473 5.5 -6.9°
Maximum altitude 02:49:53 64° 298° (WNW) 945 3.9 -6.1°
Drops below altitude 10° 02:55:35 10° 20° (NNE) 2,495 7.2 -5.3°
Sets 02:58:05 0° 23° (NNE) 3,436 8.1 -5.0°
